map of UBP home
UBP - Airport
Location
City:  Ubon Ratchathani, Ubon Ratchathani, Thailand
ICAO:VTUU
IATA:UBP

Details
Type:Airport (Aerodrome, Airfield)
Use:Public/Civil, Military
Latitude:1515'05"N (15.251278)
Longitude:10452'13"E (104.870231)
Datum:WGS 1984
Elevation:406 ft (124 m)
Variation:0.85W (WMM2015 magnetic declination)
-0.02 annual change
Runways:1
Longest:9848 × 148 ft (3002 × 45 m), paved

Time
Time Zone:UTC+7
Local Time:

Weather
METAR:VTUU 180400Z 05009KT 9999 FEW030 26/16 Q1016 NOSIG
TAF:VTUU 180500Z 1806/1906 04008KT 9000 FEW030
BECMG 1811/1813 NSC

Related Locations
Nearby:
Farthest:SJA: 12449 mi / 20034 km
San Juan de Marcona [San Juan de Marcona Airport], ICA, PE

Find:

   beyond  
but within

Other Information
Maps:
NOTAMs:
Links:
Sources:

  
  • flag of Thailand
  

Sectional Chart

Flight Planning
at skyvector.com

Satellite Image

Google Maps Satellite view

 

Copyright © 2004-2019 Karl L. Swartz. All rights reserved.
The Great Circle Mapper name and logo are trademarks of the Great Circle Mapper.
All other trademarks mentioned herein belong to their respective owners.
Please see credits for attibutions and further copyright information.

  Follow gcmap on Facebook Follow gcmap on Twitter Follow gcmap on Google+ GCmap on LinkedIn

hCard Microformat

Geo Microformat